{"data":{"norad_id":63430,"intl_designator":"2025-067C","name":"HJS-6C","alt_names":[],"object_type":"PAYLOAD","status":"ACTIVE","operator":null,"country":"PRC","launch_date":"2025-04-01","launch_site_code":"JSC","launch_vehicle":null,"mission":null,"orbit_class":"UNKNOWN","rcs_meters":null,"size_class":null,"mass_kg":null,"dimensions":null,"purposes":[],"wikipedia_slug":null,"has_3d_model":false,"image_url":null,"decayed_at":null,"tle_current":{"epoch":"2026-05-25T03:56:01.315104Z","epoch_age_seconds":57572,"freshness":"FRESH","line1":"1 63430U 25067C   26145.16390411  .00004790  00000+0  20230-3 0  9998","line2":"2 63430  54.9907 128.8265 0004536 274.7564  85.2940 15.25082448 64420","mean_motion":15.25082448,"eccentricity":0.0004536,"inclination_deg":54.9907,"raan_deg":128.8265,"arg_perigee_deg":274.7564,"mean_anomaly_deg":85.294,"bstar":0.0002023,"rev_number":6442,"period_min":94.421124699745,"perigee_km":487.42223850907,"apogee_km":493.65350035061,"semimajor_km":6868.6748694298,"source":"CELESTRAK","updated_at":"2026-05-25T13:38:03.729445Z"}}}